Location: Champignolles
(47.0543°N, 4.5663°E)
Time: 03:48:10
(UTC+00:00)

NOAA 16 DEB - Visible Passes

Search period start: 15 June 2021 00:00
Search period end: 25 June 2021 00:00
Orbit: 803 x 852 km, 99.0° (Epoch: 14 June)

Date Brightness Start Highest point End Pass type
(mag) Time Alt. Az. Time Alt. Az. Time Alt. Az.
15 Jun ? 01:35:21 15° WSW 01:37:13 18° W 01:40:47 10° NW visible
15 Jun ? 23:35:03 25° SE 23:38:00 52° ENE 23:43:12 10° N visible
16 Jun ? 01:16:34 21° SW 01:18:28 25° W 01:22:52 10° NW visible
16 Jun ? 23:16:16 19° ESE 23:19:34 37° ENE 23:24:28 10° N visible
17 Jun ? 00:57:47 27° SW 00:59:47 35° W 01:04:41 10° NNW visible
17 Jun ? 22:57:29 13° ESE 23:01:11 27° ENE 23:05:37 10° N visible
18 Jun ? 00:39:00 32° SSW 00:41:08 50° W 00:46:21 10° NNW visible
18 Jun ? 22:39:02 10° ESE 22:42:51 20° ENE 22:46:38 10° NNE visible
19 Jun ? 00:20:13 35° S 00:22:31 71° WSW 00:27:54 10° NNW visible
19 Jun ? 02:03:24 10° W 02:03:40 10° W 02:03:54 10° W visible
19 Jun ? 22:21:41 10° E 22:24:34 15° NE 22:27:25 10° NNE visible
20 Jun ? 00:01:25 33° SSE 00:03:59 82° ENE 00:09:20 10° NNW visible
20 Jun ? 01:42:57 13° WSW 01:44:50 15° W 01:47:53 10° NW visible
20 Jun ? 22:05:12 10° ENE 22:06:19 11° NE 22:07:27 10° NE visible
20 Jun ? 23:42:39 27° SE 23:45:28 58° ENE 23:50:43 10° N visible
21 Jun ? 01:24:10 18° WSW 01:26:03 22° W 01:30:08 10° NW visible
21 Jun ? 23:23:51 21° SE 23:27:01 42° ENE 23:32:00 10° N visible
22 Jun ? 01:05:23 24° SW 01:07:19 31° W 01:12:01 10° NW visible
22 Jun ? 23:05:05 15° ESE 23:08:36 30° ENE 23:13:11 10° N visible
23 Jun ? 00:46:35 30° SSW 00:48:38 44° W 00:53:44 10° NNW visible
23 Jun ? 22:46:18 10° ESE 22:50:13 22° ENE 22:54:15 10° N visible
24 Jun ? 00:27:48 35° S 00:30:00 62° WSW 00:35:18 10° NNW visible
24 Jun ? 22:28:41 10° E 22:31:55 16° NE 22:35:07 10° NNE visible
